This demonstration page uses our WeatherBlox Daily Observations layout. Learn more.

Left ArrowRight Arrow

Hourly Observations for December 27, 2019

Temp ( °F °C ) Dew Point ( °F °C ) Humidity (%) Winds ( mph kmh ) Pressure ( in mb ) Visibility ( mi km ) Precip ( " mm )
12:56 am 00:56 Clear 21 -6.1 19 -7.2 92 92 Calm 30.26 1025 10 16 0.00 0.00
1:56 am 01:56 Clear 20 -6.7 19 -7.2 96 96 WSW 3 6 30.27 1025 10 16 0.00 0.00
2:56 am 02:56 Clear 20 -6.7 18 -7.8 92 92 Calm 30.27 1025 10 16 0.00 0.00
3:56 am 03:56 Clear 23 -5 21 -6.1 92 92 Calm 30.27 1025 10 16 0.00 0.00
4:56 am 04:56 Clear 24 -4.4 22 -5.6 91 91 W 5 7 30.25 1024 10 16 0.00 0.00
5:56 am 05:56 Clear 21 -6.1 20 -6.7 96 96 SW 3 6 30.27 1025 10 16 0.00 0.00
6:56 am 06:56 Clear 24 -4.4 22 -5.6 91 91 SW 3 6 30.27 1025 10 16 0.00 0.00
7:56 am 07:56 Clear 22 -5.6 20 -6.7 92 92 Calm 30.26 1025 10 16 0.00 0.00
8:56 am 08:56 Sunny 22 -5.6 20 -6.7 92 92 Calm 30.27 1025 10 16 0.00 0.00
9:56 am 09:56 Mostly Sunny 29 -1.7 27 -2.8 92 92 WSW 6 9 30.28 1025 10 16 0.00 0.00
10:56 am 10:56 Sunny 35 1.7 29 -1.7 78 78 SSW 7 11 30.27 1025 10 16 0.00 0.00
11:56 am 11:56 Sunny 35 1.7 29 -1.7 78 78 S 5 7 30.22 1023 10 16 0.00 0.00
12:56 pm 12:56 Mostly Cloudy 35 1.7 29 -1.7 78 78 SSE 9 15 30.18 1022 10 16 0.00 0.00
1:56 pm 13:56 Cloudy 37 2.8 28 -2.2 70 70 SSE 10 17 30.15 1021 10 16 0.00 0.00
2:56 pm 14:56 Cloudy 38 3.3 29 -1.7 70 70 SE 8 13 30.12 1020 10 16 0.00 0.00
3:56 pm 15:56 Mostly Sunny 37 2.8 28 -2.2 70 70 SE 12 19 30.11 1020 10 16 0.00 0.00
4:56 pm 16:56 Cloudy 36 2.2 28 -2.2 73 73 ESE 6 9 30.10 1019 10 16 0.00 0.00
5:56 pm 17:56 Cloudy 34 1.1 29 -1.7 82 82 ENE 7 11 30.08 1019 10 16 0.00 0.00
6:56 pm 18:56 Cloudy with Light Rain 33 0.6 31 -0.6 92 92 ENE 8 13 30.06 1018 10 16 0.00 0.00
7:56 pm 19:56 Cloudy with Light Snow 32 0 30 -1.1 92 92 ENE 13 20 30.04 1017 7 11 0.08 2.03
8:33 pm 20:33 Cloudy with Light Snow 32 0 30 -1 93 93 E 12 19 30.06 1018 5 8 0.05 1.27
8:56 pm 20:56 Cloudy with Light Snow 32 0 31 -0.6 96 96 VRB 5 7 30.07 1018 4 6 0.09 2.29
9:03 pm 21:03 Cloudy with Light Snow 32 0 30 -1 93 93 S 6 9 30.10 1019 3 4 0.00 0.00
9:11 pm 21:11 Cloudy with Light Snow 32 0 30 -1 93 93 Calm 30.09 1019 2 3 0.06 1.52
9:26 pm 21:26 Cloudy with Light Snow 32 0 30 -1 93 93 ESE 6 9 30.08 1019 3 4 0.10 2.54
9:35 pm 21:35 Cloudy with Light Snow 32 0 30 -1 93 93 E 8 13 30.06 1018 3 5 0.12 3.05
9:56 pm 21:56 Cloudy with Light Snow 32 0 31 -0.6 96 96 E 15 24 29.99 1016 4 6 0.14 3.56
10:04 pm 22:04 Cloudy with Light Snow 32 0 30 -1 93 93 E 15 24 30.02 1017 4 6 0.01 0.25
10:26 pm 22:26 Cloudy with Light Snow 32 0 30 -1 93 93 E 15 24 30.01 1016 5 8 0.02 0.51
10:56 pm 22:56 Cloudy with Light Snow 32 0 31 -0.6 96 96 E 15 24 29.95 1014 6 10 0.02 0.51
11:26 pm 23:26 Cloudy with Light Wintry Mix 32 0 30 -1 93 93 E 10 17 29.98 1015 7 11 0.01 0.25
11:56 pm 23:56 Cloudy with Light Snow 31 -0.6 30 -1.1 96 96 E 9 15 29.93 1014 6 10 0.01 0.25

Powered by AerisWeather